User: anonymous   Login
Location: Spring Creek
(38.2870°N, 100.2160°W)
Time: 21:47:34
(UTC+00:00)
Language:

Landsat 7 - Orbit

View from above orbital plane
View from above orbital plane
View from above satellite
View from above satellite

Ground track
Ground track

The orbit data is extracted from the following two-line orbital elements,

1 25682U 99020A   21204.56023635  .00000011  00000-0  12062-4 0  9999
2 25682  98.0285 260.1413 0001819  78.4918 281.6489 14.57203777184655
Epoch (UTC): 23 July 2021 13:26:44
Eccentricity: 0.0001819
inclination: 98.0285°
perigee height: 701 km
apogee height: 703 km
right ascension of ascending node: 260.1413°
argument of perigee: 78.4918°
revolutions per day: 14.57203777
mean anomaly at epoch: 281.6489°
orbit number at epoch: 18465

The dashed part of the orbit path shows where the satellite is in the earth's shadow,  

DLR